CW2220 Weather Reports


Display with metric or nautical units.
time (UTC)temp
F
wind
direction
speed
MPH
gust
MPH
rain 1hr
in
rain 24hr
in
rain mn
in
humidity
%
barometer
mb
20260905133046 80 19 1.0 4.0 0.00 0.00 0.00 98 1013.6
20260905131557 78 340 1.0 3.0 0.00 0.00 0.00 98 1013.6
20260905130049 77 34 2.0 4.0 0.00 0.00 0.00 98 1013.6
20260905124545 77 65 1.0 3.0 0.00 0.00 0.00 98 1013.7
20260905123039 77 69 1.0 3.0 0.00 0.00 0.00 98 1013.6
20260905121545 77 0 0.0 0.0 0.00 0.00 0.00 98 1013.5
20260905120044 77 0 0.0 0.0 0.00 0.00 0.00 98 1013.3
20260905114541 76 0 0.0 0.0 0.00 0.00 0.00 98 1013.1
20260905113041 76 0 0.0 0.0 0.00 0.00 0.00 98 1012.9
20260905111605 76 0 0.0 0.0 0.00 0.00 0.00 98 1012.7
20260905110048 76 0 0.0 0.0 0.00 0.00 0.00 98 1012.6
20260905104545 76 0 0.0 0.0 0.00 0.00 0.00 98 1012.4
20260905103041 76 0 0.0 0.0 0.00 0.00 0.00 98 1012.3
20260905101549 77 0 0.0 0.0 0.00 0.00 0.00 98 1012.4
20260905100046 77 0 0.0 1.0 0.00 0.00 0.00 98 1012.4
20260905094544 77 0 0.0 2.0 0.00 0.00 0.00 98 1012.5
20260905093049 77 351 0.0 2.0 0.00 0.00 0.00 98 1012.6
20260905091545 77 351 0.0 2.0 0.00 0.00 0.00 98 1012.5
20260905090047 77 195 1.0 3.0 0.00 0.00 0.00 97 1012.5
20260905084540 77 195 0.0 2.0 0.00 0.00 0.00 97 1012.5
20260905083040 77 0 0.0 0.0 0.00 0.00 0.00 97 1012.4
20260905081545 77 0 0.0 0.0 0.00 0.00 0.00 97 1012.5
20260905080047 77 0 0.0 0.0 0.00 0.00 0.00 97 1012.4
20260905074551 77 0 0.0 0.0 0.00 0.00 0.00 97 1012.4
20260905073055 76 0 0.0 0.0 0.00 0.00 0.00 97 1012.4
20260905071547 76 0 0.0 0.0 0.00 0.00 0.00 96 1012.4
20260905070048 76 0 0.0 0.0 0.00 0.00 0.00 96 1012.5
20260905064546 77 0 0.0 0.0 0.00 0.00 0.00 96 1012.7
20260905063039 77 0 0.0 0.0 0.00 0.00 0.00 96 1012.8
20260905061546 77 0 0.0 0.0 0.00 0.00 0.00 96 1012.7
20260905060044 77 0 0.0 0.0 0.00 0.00 0.00 95 1012.6
20260905054544 77 0 0.0 0.0 0.00 0.00 0.00 95 1012.6
20260905053115 77 0 0.0 0.0 0.00 0.00 0.00 95 1012.7
20260905051540 78 0 0.0 0.0 0.00 0.00 0.00 95 1012.9
20260905050039 78 0 0.0 0.0 0.00 0.00 0.00 95 1012.9
20260905044548 78 0 0.0 0.0 0.00 0.00 0.00 94 1013.0
20260905043045 78 0 0.0 0.0 0.00 0.00 0.00 94 1013.1
20260905041546 78 0 0.0 0.0 0.00 0.00 0.00 94 1013.1
20260905040046 78 0 0.0 0.0 0.00 0.00 0.00 94 1013.1
20260905034542 78 0 0.0 0.0 0.00 0.00 0.00 93 1013.2
20260905033054 78 0 0.0 0.0 0.00 0.00 0.00 92 1013.5
20260905031550 78 0 0.0 0.0 0.00 0.00 0.00 92 1013.7
20260905030044 78 0 0.0 0.0 0.00 0.00 0.00 91 1013.5
20260905024539 79 0 0.0 1.0 0.00 0.00 0.00 91 1013.6
20260905023042 79 0 0.0 0.0 0.00 0.00 0.00 90 1013.6
20260905021546 79 0 0.0 2.0 0.00 0.00 0.00 89 1013.5
20260905020052 79 0 0.0 0.0 0.00 0.00 0.00 88 1013.3
20260905014543 80 0 0.0 0.0 0.00 0.00 0.00 88 1013.1
20260905013040 80 0 0.0 0.0 0.00 0.00 0.00 87 1012.9
20260905011549 80 0 0.0 2.0 0.00 0.00 0.00 86 1012.8
20260905010045 81 0 0.0 4.0 0.00 0.00 0.00 85 1012.7
20260905004543 82 0 0.0 2.0 0.00 0.00 0.00 83 1012.8
20260905003039 82 186 1.0 4.0 0.00 0.00 0.00 83 1013.0
20260905001546 82 165 2.0 6.0 0.00 0.00 0.00 84 1012.8
20260905000048 83 200 2.0 9.0 0.00 0.00 0.00 85 1012.6
20260904234542 84 179 4.0 9.0 0.00 0.00 0.00 85 1012.4
20260904233051 85 161 4.0 10.0 0.00 0.00 0.00 81 1012.5
20260904231544 86 90 1.0 9.0 0.00 0.00 0.00 79 1012.3
20260904230046 88 101 2.0 8.0 0.00 0.00 0.00 77 1012.2
20260904224559 88 59 3.0 7.0 0.00 0.00 0.00 75 1012.0
20260904223046 90 69 3.0 7.0 0.00 0.00 0.00 71 1011.8
20260904221549 91 80 0.0 4.0 0.00 0.00 0.00 68 1012.0
20260904220046 91 104 3.0 8.0 0.00 0.00 0.00 67 1011.9
20260904214549 93 0 0.0 3.0 0.00 0.00 0.00 63 1011.8
20260904213040 91 0 0.0 6.0 0.00 0.00 0.00 64 1011.9
20260904211546 92 121 3.0 7.0 0.00 0.00 0.00 66 1012.1
20260904210050 92 53 1.0 5.0 0.00 0.00 0.00 64 1012.2
20260904204547 92 113 2.0 6.0 0.00 0.98 0.00 67 1012.3
20260904203047 92 295 2.0 6.0 0.00 0.98 0.00 65 1012.5
20260904201558 90 88 2.0 6.0 0.00 0.98 0.00 68 1012.8
20260904200041 91 30 1.0 9.0 0.00 0.98 0.00 69 1013.0
20260904194553 92 59 1.0 8.0 0.00 0.98 0.00 67 1013.1
20260904193040 91 28 2.0 7.0 0.00 0.98 0.00 68 1013.2
20260904191539 91 27 3.0 9.0 0.00 0.98 0.00 69 1013.6
20260904190039 90 59 2.0 8.0 0.00 0.98 0.00 72 1013.8
20260904184540 90 162 1.0 9.0 0.00 0.98 0.00 71 1013.9
20260904183037 90 5 3.0 6.0 0.00 0.98 0.00 73 1014.0
20260904181541 88 17 3.0 8.0 0.00 0.98 0.00 72 1014.2
20260904180047 87 22 3.0 8.0 0.00 0.98 0.00 74 1014.4
20260904174544 87 9 4.0 9.0 0.00 1.00 0.00 77 1014.5
20260904173101 88 71 4.0 11.0 0.00 1.00 0.00 76 1014.6
20260904171545 88 51 5.0 11.0 0.00 1.00 0.00 77 1014.7
20260904170046 88 351 4.0 11.0 0.00 1.00 0.00 77 1015.0
20260904164553 87 352 4.0 10.0 0.00 1.00 0.00 79 1015.3
20260904163042 88 41 5.0 9.0 0.00 1.00 0.00 76 1015.2
20260904161541 88 32 2.0 9.0 0.00 1.00 0.00 78 1015.3
20260904160047 87 12 4.0 10.0 0.00 1.00 0.00 80 1015.2
20260904154545 87 72 3.0 9.0 0.00 1.00 0.00 80 1015.2
20260904153042 86 22 5.0 10.0 0.00 1.00 0.00 84 1015.1
20260904151548 84 34 2.0 8.0 0.00 1.00 0.00 88 1015.0
20260904150104 84 355 2.0 6.0 0.00 1.00 0.00 87 1014.9
20260904144541 84 36 3.0 6.0 0.00 1.00 0.00 87 1014.9
20260904143042 83 109 2.0 5.0 0.00 1.00 0.00 89 1014.9
20260904141548 82 53 1.0 4.0 0.00 1.00 0.00 91 1014.8
20260904140046 81 33 1.0 5.0 0.00 1.00 0.00 94 1014.6
20260904134553 80 327 1.0 5.0 0.00 1.00 0.00 97 1014.9